"datetime","# probes","# resolvers","can_ipv6","can_ipv6_prbs","can_tcp","can_tcp_prbs","can_tcp6","can_tcp6_prbs","does_ecs","does_ecs_prbs","does_flagday","does_flagday_prbs","does_rov4","does_rov4_prbs","does_rov6","does_rov6_prbs","does_qnamemin","doesnt_qnamemin","does_qnamemin_prbs","doesnt_qnamemin_prbs","does_nxdomain","doesnt_nxdomain","does_nxdomain_prbs","doesnt_nxdomain_prbs","has_ta_19036","hasnt_ta_19036","has_ta_19036_prbs","hasnt_ta_19036_prbs","has_ta_20326","hasnt_ta_20326","has_ta_20326_prbs","hasnt_ta_20326_prbs","can_rsamd5","cannot_rsamd5","broken_rsamd5","can_rsamd5_prbs","cannot_rsamd5_prbs","broken_rsamd5_prbs","can_dsa","cannot_dsa","broken_dsa","can_dsa_prbs","cannot_dsa_prbs","broken_dsa_prbs","can_rsasha1","cannot_rsasha1","broken_rsasha1","can_rsasha1_prbs","cannot_rsasha1_prbs","broken_rsasha1_prbs","can_dsansec3","cannot_dsansec3","broken_dsansec3","can_dsansec3_prbs","cannot_dsansec3_prbs","broken_dsansec3_prbs","can_rsansec3","cannot_rsansec3","broken_rsansec3","can_rsansec3_prbs","cannot_rsansec3_prbs","broken_rsansec3_prbs","can_rsasha256","cannot_rsasha256","broken_rsasha256","can_rsasha256_prbs","cannot_rsasha256_prbs","broken_rsasha256_prbs","can_rsasha512","cannot_rsasha512","broken_rsasha512","can_rsasha512_prbs","cannot_rsasha512_prbs","broken_rsasha512_prbs","can_eccgost","cannot_eccgost","broken_eccgost","can_eccgost_prbs","cannot_eccgost_prbs","broken_eccgost_prbs","can_ecdsa256","cannot_ecdsa256","broken_ecdsa256","can_ecdsa256_prbs","cannot_ecdsa256_prbs","broken_ecdsa256_prbs","can_ecdsa384","cannot_ecdsa384","broken_ecdsa384","can_ecdsa384_prbs","cannot_ecdsa384_prbs","broken_ecdsa384_prbs","can_ed25519","cannot_ed25519","broken_ed25519","can_ed25519_prbs","cannot_ed25519_prbs","broken_ed25519_prbs","can_ed448","cannot_ed448","broken_ed448","can_ed448_prbs","cannot_ed448_prbs","broken_ed448_prbs","can_gost","cannot_gost","broken_gost","can_gost_prbs","cannot_gost_prbs","broken_gost_prbs","can_sha384","cannot_sha384","broken_sha384","can_sha384_prbs","cannot_sha384_prbs","broken_sha384_prbs","is_internal","is_forwarding","is_external","is_internal_prbs","is_forwarding_prbs","is_external_prbs"
2017-06-20T23:59:59Z,87,130,126,84,130,87,125,84,1,3,0,0,0,0,0,0,0,129,0,86,0,130,0,87,0,0,0,0,0,0,0,0,126,3,1,83,5,3,128,2,0,85,6,1,130,0,0,87,3,1,127,3,0,84,7,1,130,0,0,87,3,1,130,0,0,87,3,1,129,0,0,86,3,1,127,3,0,84,7,1,130,0,0,87,3,1,130,0,0,87,3,1,0,130,0,0,87,1,0,130,0,0,87,1,130,0,0,87,3,1,129,0,0,86,3,1,77,37,16,54,30,13
2017-06-21T23:59:59Z,88,130,126,85,130,88,125,85,1,3,0,0,0,0,0,0,0,130,0,88,0,130,0,88,0,0,0,0,0,0,0,0,124,4,2,82,6,4,126,4,0,84,8,1,129,1,0,87,4,1,127,3,0,85,7,1,130,0,0,88,3,1,130,0,0,88,3,1,130,0,0,88,3,1,127,3,0,85,7,1,129,1,0,87,4,1,129,1,0,87,4,1,0,130,0,0,88,1,0,130,0,0,88,1,130,0,0,88,3,1,129,0,1,87,3,2,77,38,15,55,30,13
2017-06-22T23:59:59Z,89,134,130,86,134,89,129,86,1,3,0,0,0,0,0,0,0,134,0,89,0,134,0,89,0,0,0,0,0,0,0,0,129,4,1,84,6,4,131,3,0,86,8,1,133,1,0,88,4,1,131,3,0,86,8,1,134,0,0,89,3,1,134,0,0,89,3,1,134,0,0,89,3,1,131,3,0,86,8,1,134,0,0,89,3,1,134,0,0,89,3,1,0,134,0,0,89,1,0,134,0,0,89,1,134,0,0,89,3,1,133,0,1,88,3,1,79,39,16,55,31,14
2017-06-23T23:59:59Z,90,135,131,87,135,90,129,86,1,3,0,0,0,0,0,0,0,135,0,90,0,135,1,90,0,0,0,0,0,0,0,0,130,4,1,86,7,3,131,4,0,87,9,0,132,3,0,88,6,0,130,5,0,86,9,1,133,2,0,89,5,1,133,2,0,89,5,1,133,2,0,89,5,1,131,4,0,87,8,1,132,3,0,88,6,1,132,3,0,88,6,1,0,135,0,0,90,1,0,135,0,0,90,1,135,0,0,90,4,1,135,0,0,90,4,1,78,41,16,55,32,13
2017-06-24T23:59:59Z,87,131,127,84,131,87,126,84,1,3,0,0,0,0,0,0,0,131,0,87,0,131,0,87,0,0,0,0,0,0,0,0,126,4,1,82,6,2,128,3,0,84,7,0,130,1,0,86,4,0,127,4,0,83,8,0,130,1,0,86,4,0,130,1,0,86,4,0,130,1,0,86,4,0,127,4,0,83,8,0,130,1,0,86,4,0,131,0,0,87,3,0,0,131,0,0,87,0,0,131,0,0,87,0,131,0,0,87,3,0,130,1,0,86,4,0,74,40,17,52,32,13
2017-06-25T23:59:59Z,88,134,130,85,134,88,129,85,0,2,0,0,0,0,0,0,0,134,0,88,0,134,0,88,0,0,0,0,0,0,0,0,129,4,1,83,7,2,131,3,0,85,8,0,133,1,0,87,5,0,130,4,0,84,10,0,133,1,0,87,5,0,133,1,0,87,5,0,133,1,0,87,5,0,130,4,0,84,10,0,133,1,0,87,5,0,133,1,0,87,5,0,0,134,0,0,88,0,0,134,0,0,88,0,134,0,0,88,4,0,133,1,0,87,5,0,75,42,17,54,32,13
2017-06-26T23:59:59Z,88,131,127,85,131,88,126,85,2,4,0,0,0,0,0,0,0,131,0,88,0,131,1,88,0,0,0,0,0,0,0,0,125,5,1,82,9,2,128,3,0,85,9,1,129,2,0,86,7,1,129,2,0,86,8,0,131,0,0,88,5,1,131,0,0,88,5,1,131,0,0,88,5,1,129,2,0,86,8,2,130,1,0,87,6,2,130,1,0,87,6,0,0,131,0,0,88,0,0,131,0,0,88,0,131,0,0,88,5,1,130,1,0,87,5,2,74,41,16,53,32,12
2017-06-27T23:59:59Z,92,138,134,89,138,92,131,87,0,2,0,0,0,0,0,0,0,138,0,92,0,138,0,92,0,0,0,0,0,0,0,0,130,7,1,85,11,3,133,5,0,88,11,1,135,3,0,90,8,1,132,6,0,87,12,1,134,4,0,89,9,1,134,4,0,89,9,1,134,4,0,89,9,1,132,6,0,87,12,1,136,2,0,90,8,1,136,2,0,90,8,1,0,138,0,0,92,1,0,138,0,0,92,1,138,0,0,92,6,1,134,4,0,89,9,1,77,44,17,56,33,13
2017-06-28T23:59:59Z,91,133,129,88,133,91,126,87,0,3,0,0,0,0,0,0,0,133,0,91,0,133,0,91,0,0,0,0,0,0,0,0,127,4,2,85,9,4,129,4,0,87,11,1,132,1,0,90,7,1,129,4,0,87,11,1,131,2,0,89,8,1,131,2,0,89,8,1,131,2,0,89,8,1,129,4,0,87,11,1,132,1,0,90,7,1,132,1,0,90,7,1,0,133,0,0,91,1,0,133,0,0,91,1,133,0,0,91,6,2,133,0,0,91,6,2,76,41,16,56,32,13
2017-06-29T23:59:59Z,89,132,128,86,132,89,126,86,0,3,0,0,0,0,0,0,0,132,0,89,0,132,0,89,0,0,0,0,0,0,0,0,127,3,2,85,7,4,128,3,1,86,10,1,131,0,1,89,5,1,127,4,1,85,11,1,132,0,0,89,5,0,132,0,0,89,5,0,132,0,0,89,5,0,128,4,0,85,11,0,131,1,0,88,6,0,131,1,0,88,6,0,0,132,0,0,89,0,0,132,0,0,89,0,132,0,0,89,5,0,132,0,0,89,5,0,76,40,16,55,31,13
2017-06-30T23:59:59Z,91,134,130,88,134,91,127,87,0,3,0,0,0,0,0,0,0,134,0,91,0,134,1,91,0,0,0,0,0,0,0,0,126,6,2,84,10,5,128,6,0,86,13,1,131,3,0,89,8,1,128,6,0,86,13,1,132,2,0,90,7,1,132,2,0,90,7,1,132,2,0,90,7,1,128,6,0,86,13,1,132,2,0,90,7,1,132,2,0,90,7,1,0,134,0,0,91,1,0,134,0,0,91,1,134,0,0,91,6,1,134,0,0,91,6,1,77,41,16,56,32,13
2017-07-01T23:59:59Z,88,126,122,85,126,88,121,85,0,3,0,0,0,0,0,0,0,126,0,88,0,126,0,88,0,0,0,0,0,0,0,0,123,3,0,85,8,3,125,1,0,87,10,0,126,0,0,88,6,0,122,4,0,84,12,0,126,0,0,88,6,0,126,0,0,88,6,0,126,0,0,88,6,0,122,4,0,84,12,0,125,1,0,87,7,0,125,1,0,87,7,0,0,126,0,0,88,0,0,126,0,0,88,0,126,0,0,88,6,0,126,0,0,88,6,0,74,37,15,55,30,13
2017-07-02T23:59:59Z,88,130,126,85,130,88,125,85,0,3,0,0,0,0,0,0,0,130,0,88,0,130,0,88,0,0,0,0,0,0,0,0,125,4,1,83,8,3,127,3,0,85,10,0,129,1,0,87,6,0,127,3,0,85,11,0,130,0,0,88,5,0,130,0,0,88,5,0,130,0,0,88,5,0,127,3,0,85,11,0,129,1,0,87,6,0,129,1,0,87,6,0,0,130,0,0,88,0,0,130,0,0,88,0,130,0,0,88,5,0,130,0,0,88,5,0,76,38,16,55,30,13
2017-07-03T23:59:59Z,90,134,130,87,134,90,129,87,0,3,0,0,0,0,0,0,0,134,0,90,0,134,0,90,0,0,0,0,0,0,0,0,129,3,2,85,8,4,132,2,0,88,10,0,134,0,0,90,6,0,132,2,0,88,10,0,134,0,0,90,6,0,134,0,0,90,6,0,134,0,0,90,6,0,132,2,0,88,10,0,133,1,0,89,7,0,133,1,0,89,7,0,0,134,0,0,90,0,0,134,0,0,90,0,134,0,0,90,6,0,134,0,0,90,6,0,79,39,16,56,31,13
2017-07-04T23:59:59Z,90,134,130,87,134,90,129,87,0,3,0,0,0,0,0,0,0,134,0,90,0,134,0,90,0,0,0,0,0,0,0,0,128,4,2,84,9,4,130,4,0,86,12,0,133,1,0,89,7,0,130,4,0,86,12,0,133,1,0,89,7,0,133,1,0,89,7,0,133,1,0,89,7,0,130,4,0,86,12,0,133,1,0,89,7,0,133,1,0,89,7,0,0,134,0,0,90,0,0,134,0,0,90,0,134,0,0,90,6,0,134,0,0,90,6,0,80,39,15,57,30,13
2017-07-05T23:59:59Z,89,132,128,86,132,89,127,86,0,3,0,0,0,0,0,0,0,132,0,89,0,132,0,89,0,0,0,0,0,0,0,0,127,3,2,84,8,4,129,3,0,86,11,0,132,0,0,89,6,0,129,3,0,86,11,0,132,0,0,89,6,0,132,0,0,89,6,0,132,0,0,89,6,0,129,3,0,86,11,0,132,0,0,89,6,0,132,0,0,89,6,0,0,132,0,0,89,0,0,132,0,0,89,0,132,0,0,89,6,0,132,0,0,89,6,0,79,38,15,56,30,13
2017-07-06T23:59:59Z,90,133,129,87,133,90,127,86,1,5,0,0,0,0,0,0,0,133,0,90,0,133,0,90,0,0,0,0,0,0,0,0,127,4,2,84,9,5,129,4,0,86,12,1,132,1,0,89,7,1,129,4,0,86,12,1,133,0,0,90,6,0,133,0,0,90,6,0,133,0,0,90,6,0,129,4,0,86,12,0,131,2,0,88,8,0,131,2,0,88,8,0,0,133,0,0,90,0,0,133,0,0,90,0,133,0,0,90,6,1,132,1,0,89,7,0,76,40,17,56,31,13
2017-07-07T23:59:59Z,89,131,127,86,131,89,126,86,1,4,0,0,0,0,0,0,0,131,0,89,0,131,0,89,0,0,0,0,0,0,0,0,127,3,1,85,8,3,129,2,0,87,10,0,131,0,0,89,6,0,127,4,0,85,12,0,131,0,0,89,6,0,131,0,0,89,6,0,131,0,0,89,6,0,127,4,0,85,12,0,131,0,0,89,6,0,131,0,0,89,6,0,0,131,0,0,89,0,0,131,0,0,89,0,131,0,0,89,6,0,131,0,0,89,6,0,77,38,16,56,30,13
2017-07-08T23:59:59Z,91,134,130,88,134,91,129,88,2,4,0,0,0,0,0,0,0,134,0,91,0,134,0,91,0,0,0,0,0,0,0,0,129,4,1,86,10,4,129,5,0,88,12,0,133,1,0,90,7,0,130,4,0,89,12,0,134,0,0,91,6,0,134,0,0,91,6,0,134,0,0,91,6,0,130,4,0,88,12,0,133,1,0,90,7,0,133,1,0,90,7,0,0,134,0,0,91,0,0,134,0,0,91,0,134,0,0,91,7,0,134,0,0,91,6,0,79,39,16,57,31,14
2017-07-09T23:59:59Z,90,136,132,87,136,90,131,87,1,4,0,0,0,0,0,0,0,136,0,90,0,136,0,90,0,0,0,0,0,0,0,0,130,4,2,85,10,4,131,5,0,87,12,0,135,1,0,89,7,0,130,6,0,86,13,0,136,0,0,90,6,0,136,0,0,90,6,0,136,0,0,90,6,0,130,6,0,85,13,0,136,0,0,90,6,0,136,0,0,90,6,0,0,136,0,0,90,0,0,136,0,0,90,0,136,0,0,90,7,0,136,0,0,90,6,0,81,38,17,57,30,14
2017-07-10T23:59:59Z,89,133,129,86,133,89,128,86,0,4,0,0,0,0,0,0,0,133,0,89,0,133,0,89,0,0,0,0,0,0,0,0,129,3,1,85,8,4,130,3,0,86,11,0,133,0,0,89,6,0,129,4,0,85,12,0,133,0,0,89,6,0,133,0,0,89,6,0,133,0,0,89,6,0,129,4,0,85,12,0,133,0,0,89,6,0,133,0,0,89,6,0,0,133,0,0,89,0,0,133,0,0,89,0,133,0,0,89,6,0,133,0,0,89,6,0,79,38,16,56,30,14
2017-07-11T23:59:59Z,88,133,129,85,133,88,128,85,2,5,0,0,0,0,0,0,0,133,0,88,0,133,0,88,0,0,0,0,0,0,0,0,129,2,2,84,7,4,131,2,0,86,10,0,133,0,0,88,6,0,129,4,0,84,12,0,133,0,0,88,6,0,133,0,0,88,6,0,133,0,0,88,6,0,129,4,0,84,12,0,133,0,0,88,6,0,133,0,0,88,6,0,0,133,0,0,88,0,0,133,0,0,88,0,133,0,0,88,6,0,133,0,0,88,6,0,78,38,17,55,30,14
2017-07-12T23:59:59Z,88,133,129,85,133,88,128,85,2,5,0,0,0,0,0,0,0,133,0,88,0,133,0,88,0,0,0,0,0,0,0,0,129,3,1,84,8,4,130,3,0,85,11,0,133,0,0,88,6,0,129,4,0,84,12,0,133,0,0,88,6,0,133,0,0,88,6,0,133,0,0,88,6,0,129,4,0,84,12,0,133,0,0,88,6,0,133,0,0,88,6,0,0,133,0,0,88,0,0,133,0,0,88,0,133,0,0,88,6,0,133,0,0,88,6,0,80,36,17,56,29,14
2017-07-13T23:59:59Z,91,141,137,88,141,91,134,87,1,5,0,0,0,0,0,0,0,141,0,91,0,141,0,91,0,0,0,0,0,0,0,0,131,3,7,83,8,7,132,9,0,84,15,0,141,0,0,91,6,0,133,8,0,85,14,0,137,4,0,89,8,0,137,4,0,89,8,0,137,4,0,89,8,0,133,8,0,85,14,0,139,2,0,90,7,0,139,2,0,90,7,0,0,141,0,0,91,0,0,141,0,0,91,0,141,0,0,91,6,0,139,2,0,90,7,0,80,43,18,57,31,14
2017-07-14T23:59:59Z,90,137,133,87,137,90,129,85,2,6,0,0,0,0,0,0,0,137,0,90,0,137,0,90,0,0,0,0,0,0,0,0,129,6,2,83,10,4,131,6,0,85,13,0,134,3,0,88,8,0,130,7,0,84,14,0,134,3,0,88,8,0,134,3,0,88,8,0,134,3,0,88,8,0,130,7,0,84,14,0,134,3,0,88,8,0,134,3,0,88,8,0,0,137,0,0,90,0,0,137,0,0,90,0,137,0,0,90,6,0,134,3,0,88,8,0,79,41,17,56,31,14
2017-07-15T23:59:59Z,89,137,133,86,137,89,132,86,1,5,0,0,0,0,0,0,0,137,0,89,0,137,0,89,0,0,0,0,0,0,0,0,133,3,1,85,7,4,134,3,0,86,10,0,137,0,0,89,5,0,133,4,0,85,11,0,137,0,0,89,5,0,137,0,0,89,5,0,137,0,0,89,5,0,133,4,0,85,11,0,137,0,0,89,5,0,137,0,0,89,5,0,0,137,0,0,89,0,0,137,0,0,89,0,137,0,0,89,5,0,137,0,0,89,5,0,83,37,17,57,29,14
2017-07-16T23:59:59Z,89,134,130,86,134,89,129,86,1,4,0,0,0,0,0,0,0,134,0,89,0,134,1,89,0,0,0,0,0,0,0,0,130,3,1,85,8,4,131,3,0,86,11,0,134,0,0,89,6,0,130,4,0,85,12,0,134,0,0,89,6,0,134,0,0,89,6,0,134,0,0,89,6,0,130,4,0,85,12,0,134,0,0,89,6,0,134,0,0,89,6,0,0,134,0,0,89,0,0,134,0,0,89,0,134,0,0,89,6,0,134,0,0,89,6,0,83,37,14,58,28,13
2017-07-17T23:59:59Z,91,141,137,88,141,91,136,88,2,5,0,0,0,0,0,0,0,141,0,91,0,141,0,91,0,0,0,0,0,0,0,0,133,6,2,84,9,5,134,7,0,85,13,0,139,2,0,90,6,0,134,7,0,85,13,0,139,2,0,90,6,0,139,2,0,90,6,0,139,2,0,90,6,0,134,7,0,85,13,0,138,3,0,89,7,0,138,3,0,89,7,0,0,141,0,0,91,0,0,141,0,0,91,0,141,0,0,91,5,0,141,0,0,91,5,0,81,42,18,57,31,14
2017-07-18T23:59:59Z,91,139,135,88,139,91,134,88,0,4,0,0,0,0,0,0,0,139,0,91,0,139,0,91,0,0,0,0,0,0,0,0,134,3,2,86,8,4,135,4,0,87,12,0,138,1,0,90,7,0,135,4,0,87,12,0,139,0,0,91,6,0,139,0,0,91,6,0,139,0,0,91,6,0,135,4,0,87,12,0,138,1,0,90,7,0,138,1,0,90,7,0,0,139,0,0,91,0,0,139,0,0,91,0,139,0,0,91,6,0,139,0,0,91,6,0,83,39,17,58,30,14
2017-07-19T23:59:59Z,91,138,134,88,138,91,133,88,2,5,0,0,0,0,0,0,0,138,0,91,0,138,0,91,0,0,0,0,0,0,0,0,132,4,2,85,9,5,133,5,0,86,13,0,137,1,0,90,7,0,134,4,0,87,12,0,138,0,0,91,6,0,138,0,0,91,6,0,138,0,0,91,6,0,134,4,0,87,12,0,137,1,0,90,7,0,137,1,0,90,7,0,0,138,0,0,91,0,0,138,0,0,91,0,138,0,0,91,6,0,138,0,0,91,6,0,81,39,18,58,30,14
2017-07-20T23:59:59Z,93,142,138,90,142,93,137,90,1,4,0,0,0,0,0,0,0,142,0,93,0,142,0,93,0,0,0,0,0,0,0,0,136,4,2,87,9,4,138,4,0,89,12,0,141,1,0,92,7,0,139,3,0,90,12,0,142,0,0,93,6,0,141,1,0,92,7,0,141,1,0,92,7,0,140,2,0,91,11,0,141,1,0,92,7,0,141,1,0,92,7,0,0,142,0,0,93,0,0,142,0,0,93,0,142,0,0,93,6,0,142,0,0,93,6,0,84,41,17,59,31,14
2017-07-21T23:59:59Z,92,143,138,89,143,92,136,88,1,4,0,0,0,0,0,0,0,143,0,92,0,143,0,92,0,0,0,0,0,0,0,0,137,5,1,86,9,4,138,5,0,87,12,0,141,2,0,90,7,0,138,5,0,87,12,0,142,1,0,91,6,0,141,2,0,90,7,0,141,2,0,90,7,0,138,5,0,87,12,0,141,2,0,90,7,0,141,2,0,90,7,0,0,143,0,0,92,0,0,143,0,0,92,0,143,0,0,92,5,0,141,2,0,90,7,0,82,41,20,57,32,14
2017-07-22T23:59:59Z,90,139,134,87,139,90,133,87,2,5,0,0,0,0,0,0,0,139,0,90,0,139,0,90,0,0,0,0,0,0,0,0,133,4,2,84,8,4,134,5,0,86,11,0,136,3,0,88,7,0,135,4,0,87,10,0,139,0,0,90,5,0,139,0,0,90,5,0,137,2,0,89,6,0,135,4,0,87,10,0,137,2,0,89,6,0,137,2,0,89,6,0,0,139,0,0,90,0,0,139,0,0,90,0,139,0,0,90,5,0,139,0,0,90,5,0,79,43,17,55,32,14
2017-07-23T23:59:59Z,94,144,139,91,144,94,136,90,2,5,0,0,0,0,0,0,0,144,0,94,0,144,0,94,0,0,0,0,0,0,0,0,137,6,1,88,9,4,138,6,0,89,12,0,141,3,0,92,7,0,138,6,0,89,12,0,142,2,0,93,6,0,142,2,0,93,6,0,141,3,0,92,7,0,138,6,0,89,12,0,141,3,0,92,7,0,141,3,0,92,7,0,0,144,0,0,94,0,0,144,0,0,94,0,144,0,0,94,5,0,144,0,0,94,5,0,83,44,17,58,33,14
2017-07-24T23:59:59Z,91,141,136,88,141,91,135,88,2,4,0,0,0,0,0,0,0,141,0,91,0,141,0,91,0,0,0,0,0,0,0,0,136,4,1,86,8,4,138,3,0,88,10,0,140,1,0,90,6,0,138,3,0,88,10,0,141,0,0,91,5,0,141,0,0,91,5,0,141,0,0,91,5,0,138,3,0,88,10,0,140,1,0,90,7,0,140,1,0,90,6,0,0,141,0,0,91,0,0,141,0,0,91,0,141,0,0,91,5,0,141,0,0,91,5,0,82,41,18,57,31,14
2017-07-25T23:59:59Z,91,138,134,88,138,91,133,88,4,7,0,0,0,0,0,0,0,138,0,91,0,138,0,91,0,0,0,0,0,0,0,0,132,3,3,85,9,7,133,5,0,86,13,1,138,0,0,91,7,1,134,4,0,87,12,1,138,0,0,91,7,1,137,1,0,90,8,1,137,1,0,90,8,1,134,4,0,87,12,1,137,1,0,90,8,1,137,1,0,90,8,1,0,138,0,0,91,1,0,138,0,0,91,1,138,0,0,91,7,1,138,0,0,91,7,1,79,41,18,57,31,14
2017-07-26T23:59:59Z,91,138,134,88,138,91,132,87,2,5,0,0,0,0,0,0,0,138,0,91,0,138,0,91,0,0,0,0,0,0,0,0,132,5,1,85,10,3,134,4,0,87,12,0,136,2,0,89,8,0,133,5,0,86,13,0,136,2,0,89,8,0,136,2,0,89,8,0,136,2,0,89,8,0,133,5,0,86,13,0,137,1,0,90,7,0,137,1,0,90,7,0,0,138,0,0,91,0,0,138,0,0,91,0,138,0,0,91,6,0,137,1,0,90,7,0,79,42,17,56,32,13
2017-07-27T23:59:59Z,90,137,133,87,137,90,132,87,0,3,0,0,0,0,0,0,0,137,0,90,0,137,0,90,0,0,0,0,0,0,0,0,131,3,3,85,7,4,133,4,0,87,10,0,137,0,0,90,5,0,132,5,0,86,12,0,134,3,0,88,7,0,134,3,0,88,7,0,134,3,0,88,7,0,132,5,0,86,12,0,134,3,0,88,7,0,134,3,0,88,7,0,0,137,0,0,90,0,0,137,0,0,90,0,137,0,0,90,5,0,136,1,0,89,6,0,77,43,17,55,32,13
2017-07-28T23:59:59Z,88,136,132,85,136,88,131,85,0,3,0,0,0,0,0,0,0,136,0,88,0,136,0,88,0,0,0,0,0,0,0,0,131,3,2,83,8,4,134,2,0,86,10,0,136,0,0,88,6,0,134,2,0,86,10,0,136,0,0,88,6,0,136,0,0,88,6,0,136,0,0,88,6,0,134,2,0,86,10,0,136,0,0,88,6,0,136,0,0,88,6,0,0,136,0,0,88,0,0,136,0,0,88,0,136,0,0,88,6,0,136,0,0,88,6,0,76,42,18,54,31,13
2017-07-29T23:59:59Z,91,138,135,89,137,91,133,88,0,3,0,0,0,0,0,0,0,138,0,91,0,137,0,91,0,0,0,0,0,0,0,0,134,1,3,87,7,5,134,3,1,88,10,1,137,0,1,91,5,1,134,3,1,88,10,1,136,1,1,90,6,1,136,1,1,90,6,1,136,1,1,90,6,1,134,3,1,88,10,1,135,2,1,89,7,1,135,2,1,89,7,1,0,137,1,0,91,1,0,137,1,0,91,1,138,0,0,91,5,0,137,1,0,90,6,0,80,41,17,57,31,13
2017-07-30T23:59:59Z,90,138,134,87,138,90,133,87,2,5,0,0,0,0,0,0,0,138,0,90,0,138,0,90,0,0,0,0,0,0,0,0,133,3,2,85,8,4,136,2,0,88,10,0,137,1,0,89,7,0,135,3,0,87,11,0,138,0,0,90,6,0,138,0,0,90,6,0,138,0,0,90,6,0,135,3,0,87,11,0,137,1,0,89,7,0,137,1,0,89,7,0,0,138,0,0,90,0,0,138,0,0,90,0,138,0,0,90,6,0,138,0,0,90,6,0,79,41,18,56,31,13
2017-07-31T23:59:59Z,90,140,136,87,140,90,135,87,0,3,0,0,0,0,0,0,0,140,0,90,0,140,0,90,0,0,0,0,0,0,0,0,135,3,1,86,7,3,138,1,0,89,8,0,139,0,0,90,5,0,138,1,0,89,8,0,140,0,0,90,5,0,139,0,0,90,5,0,139,0,0,90,5,0,139,1,0,89,8,0,139,0,0,90,5,0,139,0,0,90,5,0,0,139,0,0,90,0,0,139,0,0,90,0,140,0,0,90,5,0,140,0,0,90,5,0,81,42,17,56,31,13
2017-08-01T23:59:59Z,89,138,134,86,137,89,133,86,0,3,0,0,0,0,0,0,0,138,0,89,0,138,0,89,0,0,0,0,0,0,0,0,134,3,1,85,7,3,136,2,0,87,9,0,138,0,0,89,5,0,135,3,0,86,10,0,138,0,0,89,5,0,138,0,0,89,5,0,138,0,0,89,5,0,136,2,0,87,9,0,138,0,0,89,5,0,138,0,0,89,5,0,0,138,0,0,89,0,0,138,0,0,89,0,138,0,0,89,5,0,138,0,0,89,5,0,81,41,16,56,30,12
2017-08-02T23:59:59Z,92,143,139,89,143,92,138,89,0,3,0,0,0,0,0,0,0,143,0,92,0,143,0,92,0,0,0,0,0,0,0,0,137,4,2,86,9,4,139,4,0,88,12,0,142,1,0,91,7,0,140,3,0,89,11,0,143,0,0,92,6,0,142,1,0,91,7,0,142,1,0,91,7,0,140,3,0,89,11,0,142,1,0,91,7,0,142,1,0,91,7,0,0,143,0,0,92,0,0,143,0,0,92,0,143,0,0,92,6,0,143,0,0,92,6,0,83,42,18,58,31,13
2017-08-03T23:59:59Z,92,143,139,89,143,92,138,89,0,3,0,0,0,0,0,0,0,143,0,92,0,143,0,92,0,0,0,0,0,0,0,0,138,4,1,87,9,3,140,3,0,89,11,0,142,1,0,91,7,0,141,2,0,90,10,0,143,0,0,92,6,0,142,1,0,91,7,0,142,1,0,91,7,0,141,2,0,90,10,0,142,1,0,91,7,0,142,1,0,91,7,0,0,143,0,0,92,0,0,143,0,0,92,0,143,0,0,92,6,0,143,0,0,92,6,0,83,42,18,58,31,13
2017-08-04T23:59:59Z,94,146,142,91,146,94,141,91,1,5,0,0,0,0,0,0,0,146,0,94,0,146,0,94,0,0,0,0,0,0,0,0,141,3,2,90,8,5,141,5,0,90,14,0,144,2,0,93,7,0,141,5,0,90,13,0,144,2,0,93,7,0,144,2,0,93,7,0,144,2,0,93,7,0,141,5,0,90,13,0,144,2,0,93,7,0,144,2,0,93,7,0,0,146,0,0,94,0,0,146,0,0,94,0,146,0,0,94,6,0,146,0,0,94,6,0,84,45,17,59,32,14
2017-08-05T23:59:59Z,93,145,141,90,145,93,138,89,2,5,0,0,0,0,0,0,0,145,0,93,0,145,0,93,0,0,0,0,0,0,0,0,138,6,1,87,9,3,140,5,0,89,11,0,142,3,0,91,7,0,140,5,0,89,11,0,143,2,0,92,6,0,142,3,0,91,7,0,142,3,0,91,7,0,140,5,0,89,11,0,142,3,0,91,7,0,141,3,1,91,7,1,0,144,1,0,93,1,0,144,1,0,93,1,145,0,0,93,5,0,143,2,0,92,6,0,84,44,17,58,32,13
2017-08-06T23:59:58Z,94,147,143,91,147,94,142,91,0,3,0,0,0,0,0,0,0,147,0,94,0,147,0,94,0,0,0,0,0,0,0,0,143,3,1,90,8,3,144,3,0,91,11,0,147,0,0,94,6,0,143,4,0,90,12,0,147,0,0,94,6,0,147,0,0,94,6,0,147,0,0,94,6,0,143,4,0,90,12,0,147,0,0,94,6,0,147,0,0,94,6,0,0,147,0,0,94,0,0,147,0,0,94,0,147,0,0,94,6,0,147,0,0,94,6,0,87,42,18,60,31,13
2017-08-07T23:59:59Z,94,146,142,91,146,94,141,91,2,5,0,0,0,0,0,0,0,146,0,94,0,146,0,94,0,0,0,0,0,0,0,0,142,3,1,90,8,3,143,3,0,91,11,0,146,0,0,94,6,0,143,3,0,91,11,0,146,0,0,94,6,0,146,0,0,94,6,0,146,0,0,94,6,0,143,3,0,91,11,0,146,0,0,94,6,0,146,0,0,94,6,0,0,146,0,0,94,0,0,146,0,0,94,0,146,0,0,94,6,0,146,0,0,94,6,0,87,42,17,60,31,13
2017-08-08T23:59:59Z,94,147,143,91,147,94,142,91,1,4,0,0,0,0,0,0,0,147,0,94,0,147,0,94,0,0,0,0,0,0,0,0,143,3,1,90,8,3,144,3,0,91,11,0,147,0,0,94,6,0,144,3,0,91,11,0,147,0,0,94,6,0,147,0,0,94,6,0,147,0,0,94,6,0,144,3,0,91,11,0,147,0,0,94,6,0,147,0,0,94,6,0,0,147,0,0,94,0,0,147,0,0,94,0,147,0,0,94,6,0,147,0,0,94,6,0,87,43,17,60,31,13
2017-08-09T23:59:59Z,93,145,141,90,145,93,140,90,1,4,0,0,0,0,0,0,0,145,0,93,0,145,0,93,0,0,0,0,0,0,0,0,141,3,1,89,7,3,142,3,0,90,10,0,145,0,0,93,5,0,142,3,0,90,10,0,145,0,0,93,5,0,144,1,0,92,6,0,145,0,0,93,5,0,142,3,0,90,10,0,144,1,0,92,6,0,144,1,0,92,6,0,0,145,0,0,93,0,0,145,0,0,93,0,145,0,0,93,5,0,144,1,0,92,6,0,87,40,18,60,30,13
2017-08-10T23:59:59Z,91,143,139,88,143,91,138,88,1,4,0,0,0,0,0,0,0,143,0,91,0,143,0,91,0,0,0,0,0,0,0,0,139,3,1,87,7,3,141,2,0,89,9,0,143,0,0,91,5,0,141,2,0,89,9,0,143,0,0,91,5,0,143,0,0,91,5,0,143,0,0,91,5,0,141,2,0,89,9,0,143,0,0,91,5,0,143,0,0,91,5,0,0,143,0,0,91,0,0,143,0,0,91,0,143,0,0,91,5,0,143,0,0,91,5,0,86,40,17,58,30,13
2017-08-11T23:59:59Z,93,145,141,90,145,93,137,88,0,3,0,0,0,0,0,0,0,145,0,93,0,145,0,93,0,0,0,0,0,0,0,0,137,7,1,86,10,3,140,5,0,89,11,0,141,4,0,90,8,0,141,4,0,90,10,0,144,1,0,92,6,0,144,1,0,92,6,0,144,1,0,92,6,0,141,4,0,90,10,0,143,2,0,91,7,0,143,2,0,91,7,0,0,145,0,0,93,0,0,145,0,0,93,0,145,0,0,93,5,0,142,3,0,91,7,0,85,43,17,58,32,13
2017-08-12T23:59:59Z,91,142,138,88,142,91,137,88,0,3,0,0,0,0,0,0,0,142,0,91,0,142,0,91,0,0,0,0,0,0,0,0,137,3,2,86,7,4,139,3,0,88,10,0,142,0,0,91,5,0,138,4,0,87,11,0,142,0,0,91,5,0,142,0,0,91,5,0,142,0,0,91,5,0,138,4,0,87,11,0,141,1,0,90,6,0,141,1,0,90,6,0,0,142,0,0,91,0,0,142,0,0,91,0,142,0,0,91,5,0,142,0,0,91,5,0,85,40,17,58,30,13
2017-08-13T23:59:59Z,91,143,139,88,143,91,139,88,1,4,0,0,0,0,0,0,0,143,0,91,0,143,0,91,0,0,0,0,0,0,0,0,138,3,2,86,7,5,140,3,0,88,10,1,143,0,0,91,5,1,140,3,0,88,10,1,143,0,0,91,5,1,143,0,0,91,5,1,143,0,0,91,5,1,140,3,0,88,10,1,143,0,0,91,5,1,143,0,0,91,5,1,0,143,0,0,91,1,0,143,0,0,91,1,143,0,0,91,5,1,143,0,0,91,5,1,85,41,17,58,30,13
2017-08-14T23:59:59Z,94,148,144,91,148,94,143,90,1,4,0,0,0,0,0,0,0,148,0,94,0,148,0,94,0,0,0,0,0,0,0,0,143,3,2,89,8,4,146,2,0,92,10,1,148,0,0,94,6,1,146,2,0,92,10,1,148,0,0,94,6,1,148,0,0,94,6,1,148,0,0,94,6,1,146,2,0,92,10,1,147,1,0,93,7,1,147,1,0,93,7,1,0,148,0,0,94,1,0,148,0,0,94,1,148,0,0,94,6,1,148,0,0,94,6,1,89,41,18,61,30,13
2017-08-15T23:59:59Z,93,147,143,90,146,93,142,90,2,4,0,0,0,0,0,0,0,147,0,93,0,147,0,93,0,0,0,0,0,0,0,0,140,3,4,87,8,6,143,4,0,90,11,1,147,0,0,93,6,1,142,5,0,89,12,1,146,1,0,92,7,1,146,1,0,92,7,1,146,1,0,92,7,1,142,5,0,89,12,1,146,1,0,92,7,1,146,1,0,92,7,1,0,147,0,0,93,1,0,147,0,0,93,1,147,0,0,93,6,1,146,1,0,92,7,1,87,42,18,59,31,13
2017-08-16T23:59:59Z,94,146,142,91,146,94,140,90,2,5,0,0,0,0,0,0,0,146,0,94,0,146,0,94,0,0,0,0,0,0,0,0,142,4,0,90,9,4,144,2,0,92,11,1,145,1,0,93,7,1,142,4,0,90,12,1,145,1,0,93,7,1,145,1,0,93,7,1,145,1,0,93,7,1,143,3,0,91,11,1,145,1,0,93,7,1,145,1,0,93,7,1,0,146,0,0,94,1,0,146,0,0,94,1,146,0,0,94,6,1,146,0,0,94,6,1,88,41,17,60,31,13
2017-08-17T23:59:59Z,94,148,144,91,148,94,142,90,2,5,0,0,0,0,0,0,0,148,0,94,0,148,0,94,0,0,0,0,0,0,0,0,142,4,2,88,8,5,144,4,0,90,11,1,147,1,0,93,6,1,144,4,0,90,11,1,147,1,0,93,6,1,147,1,0,93,6,1,147,1,0,93,6,1,144,4,0,90,11,1,146,2,0,92,7,1,146,2,0,92,7,1,0,148,0,0,94,1,0,148,0,0,94,1,148,0,0,94,5,1,147,1,0,93,6,1,89,42,17,60,31,13
2017-08-18T23:59:59Z,90,139,135,87,139,90,134,87,0,3,0,0,0,0,0,0,0,139,0,90,0,139,0,90,0,0,0,0,0,0,0,0,133,3,3,84,7,5,136,3,0,87,10,1,139,0,0,90,5,1,136,3,0,87,10,1,139,0,0,90,5,1,139,0,0,90,5,1,139,0,0,90,5,1,136,3,0,87,10,1,139,0,0,90,5,1,139,0,0,90,5,1,0,139,0,0,90,1,0,139,0,0,90,1,139,0,0,90,5,1,139,0,0,90,5,1,87,37,15,59,28,12
2017-08-19T23:59:59Z,88,138,134,85,138,88,133,85,0,2,0,0,0,0,0,0,0,138,0,88,0,138,0,88,0,0,0,0,0,0,0,0,134,3,1,84,8,3,137,1,0,87,8,1,138,0,0,88,6,1,137,1,0,87,8,1,138,0,0,88,6,1,138,0,0,88,6,1,138,0,0,88,6,1,137,1,0,87,8,1,138,0,0,88,6,1,138,0,0,88,6,1,0,138,0,0,88,1,0,138,0,0,88,1,138,0,0,88,6,1,138,0,0,88,6,1,85,37,16,58,27,11
2017-08-20T23:59:59Z,89,140,136,86,140,89,135,86,1,3,0,0,0,0,0,0,0,140,0,89,0,140,0,89,0,0,0,0,0,0,0,0,135,4,1,84,8,3,137,3,0,86,9,1,139,1,0,88,6,1,137,3,0,86,9,1,140,0,0,89,5,1,140,0,0,89,5,1,140,0,0,89,5,1,137,3,0,86,9,1,139,1,0,88,6,1,139,1,0,88,6,1,0,140,0,0,89,1,0,140,0,0,89,1,140,0,0,89,5,1,140,0,0,89,5,1,87,37,16,59,27,11
2017-08-21T23:59:59Z,90,142,138,87,142,90,137,87,0,2,0,0,0,0,0,0,0,142,0,90,0,142,0,90,0,0,0,0,0,0,0,0,138,3,1,86,8,3,140,2,0,88,9,1,142,0,0,90,6,1,139,3,0,87,10,1,142,0,0,90,6,1,142,0,0,90,6,1,142,0,0,90,6,1,139,3,0,87,10,1,142,0,0,90,6,1,142,0,0,90,6,1,0,142,0,0,90,1,0,142,0,0,90,1,142,0,0,90,6,1,142,0,0,90,6,1,89,37,16,60,27,11
2017-08-22T23:59:59Z,91,141,137,88,140,91,136,88,1,3,0,0,0,0,0,0,0,141,0,91,0,140,0,91,0,0,0,0,0,0,0,0,136,3,2,86,8,4,138,3,0,88,10,1,141,0,0,91,6,1,138,3,0,88,10,1,141,0,0,91,6,1,140,1,0,90,7,1,140,1,0,90,7,1,138,3,0,88,10,1,140,1,0,90,7,1,140,1,0,90,7,1,0,141,0,0,91,1,0,141,0,0,91,1,141,0,0,91,6,1,140,0,1,91,6,2,89,37,15,61,27,11
2017-08-23T23:59:59Z,92,143,139,89,143,92,137,88,1,3,0,0,0,0,0,0,0,143,0,92,0,143,0,92,0,0,0,0,0,0,0,0,138,4,1,87,9,3,140,3,0,89,10,1,142,1,0,91,7,1,138,5,0,87,12,1,142,1,0,91,7,1,142,1,0,91,7,1,142,1,0,91,7,1,138,5,0,87,12,1,142,1,0,91,7,1,142,1,0,91,7,1,0,143,0,0,92,1,0,143,0,0,92,1,143,0,0,92,6,2,142,1,0,91,7,1,89,38,16,61,28,11